Cocoa Beach, FL

7:46 PM EST on February 21, 2017 (GMT -0500)
Wickham Lakes | | Change Station
Active Advisory: Small Craft Advisory

Elev 39 ft 28.23 °N, 80.72 °W | Updated 1 second ago

Partly Cloudy
Partly Cloudy
71.2 °F
Feels Like 73 °F
N
0.0
Wind Variable Wind from SE
Gusts 7.0 mph

Today
High -- | Low -- °F
--% Chance of Precip.
Yesterday
High -- | Low -- °F
Precip. -- in
Pressure 29.99 in
Visibility 10.0 miles
Clouds Clear
Heat Index 73 °F
Dew Point 63.6 °F
Humidity 77%
Rainfall 0.00 in
Snow Depth Not available.
6:54 AM 6:17 PM
Waning Crescent, 21% visible
METAR KCOF 212358Z AUTO 14013KT 10SM CLR 22/18 A2998 RMK AO2 SLP156 60000 T02200175 10249 20220 56004 $
Pressure 29.99 in
Visibility 10.0 miles
Clouds Clear
Heat Index 73 °F
Dew Point 63.6 °F
Humidity 77%
Rainfall 0.00 in
Snow Depth Not available.
6:54 AM 6:17 PM
Waning Crescent, 21% visible
METAR KCOF 212358Z AUTO 14013KT 10SM CLR 22/18 A2998 RMK AO2 SLP156 60000 T02200175 10249 20220 56004 $

Get Your Daily Forecast Email!

Thanks for signing up!

Be on the lookout for a verification email in your inbox.

You'll start receiving the daily forecast at 8 AM.

×

10-Day Weather Forecast

Almanac

Astronomy

Feb. 21, 2017 Rise Set
Actual Time
Civil Twilight
Nautical Twilight
Astronomical Twilight
Moon
Length of Visible Light
Length of Day
Tomorrow will be .
, % of the Moon is Illuminated

Today's Extremes

State Highs State Lows

Community

WunderPhotos

Upload Photos

1,962,540 photos uploaded!

WunderBlog® & News

Nearby

Air Quality

  Air Quality AQ Index Pollutant
Not available.

Snow Depth

Station Depth Elevation

Earthquake Activity

City Distance Mag. Time & Date
Minimum magnitude displayed is 2.5.

Coastal Water Temperatures

Place Temperature

Stations

Nearby Weather Stations

Station Location Temp. Windchill Dew Point Humidity Wind Precip. Elev Updated Type
                   

Watches & Warnings

Small Craft Advisory
Issued: 3:17 PM EST Feb. 21, 2017 – National Weather Service

... Small Craft Advisory in effect from 4 am Wednesday to 4 PM EST
Thursday...

The National Weather Service in Melbourne has issued a Small
Craft Advisory, which is in effect from 4 am Wednesday to 4 PM
EST Thursday.

* Winds... winds will increase to abround 20 knots Wednesday
morning.

* Waves/seas... seas will build to 6 to 7 feet during Wednesday.

Precautionary/preparedness actions...

A Small Craft Advisory means that wind speeds of 20 to 33 knots
are expected to produce hazardous wave conditions to small craft.
Inexperienced mariners... especially those operating smaller
vessels should avoid navigating in these conditions.